Location: Munkebjergskolens Observatorium
(55.3864°N, 10.3987°E)
Time: 23:30:21
(UTC+01:00)

DELTA 1 DEB - Pass Details

Date: 04 December 2023
Orbit: 783 x 826 km, 98.9° (Epoch: 04 March)

Event Time Altitude Azimuth Distance (km) Brightness Sun altitude
Rises 19:08:07 0° 203° (SSW) 3,290 ? -26.5°
Reaches altitude 10° 19:10:54 10° 218° (SW) 2,372 ? -26.9°
Maximum altitude 19:15:01 23° 270° (W) 1,657 ? -27.5°
Drops below altitude 10° 19:19:13 10° 322° (NW) 2,410 ? -28.1°
Sets 19:22:04 0° 337° (NNW) 3,355 ? -28.5°
